Home > Weather > Lindlar > Past weeks

Flag for Germany Past Weather in Lindlar, North Rhine-Westphalia, Germany — Yesterday and Last 2 Weeks

Now
66 °F

Broken clouds.


Feels Like: 66 °F
Forecast: 50 / 71 °F
Wind: 7 mph from Southwest

Location: Koeln / Bonn

Current Time: Aug 29, 2016 at 9:27:38 AM

Latest Report: Aug 29, 2016 at 8:50 AM


Visibility: N/A

Pressure: 30.07 "Hg

Humidity: 78%

Dew Point: 59 °F

Location of LindlarLocation

Past Weather in Lindlar — Graph

°F

Lindlar Temperature Yesterday

Maximum temperature yesterday: 93 °F (at 1:20 PM)
Minimum temperature yesterday: 64 °F (at 10:50 PM)
Average temperature yesterday: 76 °F

High & Low Weather Summary for the Past Weeks

 TemperatureHumidityPressure
High95 °F (Aug 27, 3:50 PM)100% (Aug 15, 3:20 AM)30.36 "Hg (Aug 15, 3:20 AM)
Low48 °F (Aug 16, 6:50 AM)28% (Aug 25, 4:50 PM)29.77 "Hg (Aug 18, 2:20 PM)
Average69 °F69%30.04 "Hg
* Reported Aug 14 8:20 AM — Aug 29 8:20 AM, Lindlar, Weather by CustomWeather, © 2016

Note: Actual official high and low records may vary slightly from our data, if they occured in-between our weather recording intervals... More about our weather records

Advertising

Lindlar Weather History for the Previous 24 Hours

Scroll right to see more
 ConditionsComfort  
Time TempWeatherWind HumidityBarometerVisibility
8:20 AM
Mon, Aug 29
64 °FPartly sunny.5 mph78%30.07 "HgN/A
7:50 AM63 °FBroken clouds.1 mph83%30.07 "HgN/A
7:20 AM61 °FPartly cloudy.5 mph88%30.04 "HgN/A
6:50 AM63 °FPartly cloudy.2 mph77%30.04 "HgN/A
6:20 AM61 °FPassing clouds.2 mph88%30.04 "HgN/A
5:50 AM61 °FPassing clouds.2 mph88%30.04 "HgN/A
5:20 AM59 °FPassing clouds.7 mph94%30.04 "HgN/A
4:50 AM61 °FClear.5 mph88%30.04 "Hg10 mi
4:20 AM61 °FClear.2 mph88%30.04 "Hg10 mi
3:50 AM61 °FClear.2 mph83%30.04 "Hg10 mi
3:20 AM61 °FClear.2 mph83%30.01 "Hg10 mi
2:50 AM61 °FClear.3 mph83%30.01 "Hg10 mi
2:20 AM63 °FClear.2 mph77%30.04 "Hg10 mi
1:50 AM64 °FPassing clouds.3 mph78%30.04 "HgN/A
1:20 AM64 °FClear.1 mph78%30.04 "Hg10 mi
12:50 AM64 °FPassing clouds.3 mph78%30.04 "HgN/A
12:20 AM66 °FPassing clouds.6 mph68%30.04 "HgN/A
11:50 PM
Sun, Aug 28
68 °FPassing clouds.3 mph69%30.04 "HgN/A
11:20 PM64 °FClear.2 mph83%30.01 "Hg10 mi
10:50 PM64 °FClear.1 mph83%30.01 "Hg10 mi
10:20 PM68 °FClear.2 mph69%30.01 "Hg10 mi
9:50 PM70 °FPassing clouds.7 mph64%29.98 "HgN/A
9:20 PM72 °FScattered clouds.10 mph61%29.98 "HgN/A
8:50 PM72 °FScattered clouds.9 mph61%29.98 "HgN/A
8:20 PM73 °FScattered clouds.10 mph61%29.95 "HgN/A
7:50 PM75 °FScattered clouds.18 mph57%29.95 "HgN/A
7:20 PM77 °FScattered clouds.22 mph54%29.95 "HgN/A
6:50 PM79 °FSunny.20 mph54%29.95 "Hg10 mi
6:20 PM81 °FScattered clouds.21 mph51%29.92 "HgN/A
5:50 PM81 °FScattered clouds.20 mph51%29.92 "HgN/A
5:20 PM82 °FThundershowers. Scattered clouds.21 mph51%29.92 "HgN/A
4:50 PM84 °FThunderstorms. Passing clouds.20 mph48%29.89 "HgN/A
4:20 PM84 °FThundershowers. Scattered clouds.13 mph51%29.89 "HgN/A
3:50 PM84 °FScattered clouds.14 mph58%29.92 "HgN/A
3:20 PM81 °FThundershowers. Scattered clouds.6 mph74%29.92 "HgN/A
2:50 PM75 °FThunderstorms. Scattered clouds.12 mph83%29.89 "HgN/A
2:20 PM90 °FPassing clouds.17 mph43%29.89 "HgN/A
1:50 PM91 °FPassing clouds.17 mph34%29.89 "HgN/A
1:20 PM93 °FSunny.16 mph32%29.89 "Hg10 mi
12:50 PM91 °FSunny.14 mph36%29.89 "Hg10 mi
12:20 PM90 °FSunny.12 mph41%29.89 "Hg10 mi
11:50 AM88 °FPassing clouds.10 mph43%29.92 "HgN/A
11:20 AM86 °FPassing clouds.10 mph46%29.92 "HgN/A
10:50 AM84 °FSunny.10 mph48%29.92 "Hg10 mi
10:20 AM82 °FPassing clouds.9 mph55%29.92 "HgN/A
9:50 AM79 °FPassing clouds.7 mph58%29.92 "HgN/A
9:20 AM75 °FPassing clouds.8 mph69%29.92 "HgN/A
Weather by CustomWeather, © 2016

See weather overviewHow to use our weather pages